Flag for U.S.A. Weather past 2 weeks in Sterling Heights, Michigan, U.S.A.

Now
55 °F

Partly sunny.


Feels Like: 50 °F
Forecast: 32 / 57 °F
Wind: 16 mph from Southeast

Location: Selfridge Air National Guard Base


UV Index: 0 (Low)

Visibility: 10 mi


Pressure: 30.31 "Hg

Humidity: 45%

Dew point: 34 °F

Location of Sterling HeightsLocation

Historic Weather in Sterling Heights

°F

Sterling Heights temperature yesterday

Maximum temperature yesterday: 39 °F (at 1:55 PM)
Minimum temperature yesterday: 19 °F (at 5:58 AM)
Average temperature yesterday: 31 °F

Past Weeks' High & Low Weather Summary

 TemperatureHumidityPressure
High76 °F (Apr 13, 4:55 PM)100% (Apr 4, 5:03 AM)30.50 "Hg (Apr 4, 5:03 AM)
Low19 °F (Apr 16, 5:58 AM)31% (Apr 11, 2:55 PM)29.40 "Hg (Apr 4, 2:01 PM)
Average44 °F67%29.93 "Hg
* Reported Apr 2 2:55 PM — Apr 17 2:55 PM, Sterling Heights, Weather by CustomWeather, © 2014

Note: Actual official high and low records may vary slightly from our data, if they occured in-between our weather recording intervals... More about our weather records

Advertising

Historic Weather Conditions — Data for Previous 24 hours

 ConditionsComfort  
Time TempWeatherWind HumidityBarometerVisibility
2:55 PM
Apr 17
55 °FPartly sunny.16 mph45%30.31 "Hg10 mi
1:55 PM53 °FPartly sunny.14 mph45%30.33 "Hg10 mi
12:55 PM52 °FPartly sunny.12 mph45%30.36 "Hg10 mi
11:55 AM49 °FPartly sunny.12 mph50%30.37 "Hg10 mi
10:55 AM47 °FOvercast.12 mph52%30.38 "Hg10 mi
9:55 AM43 °FOvercast.13 mph60%30.38 "Hg10 mi
8:55 AM40 °FOvercast.14 mph65%30.39 "Hg10 mi
7:55 AM36 °FMore clouds than sun.12 mph72%30.40 "Hg10 mi
6:58 AM34 °FPassing clouds.9 mph73%30.35 "Hg10 mi
5:58 AM34 °FPassing clouds.10 mph74%30.38 "Hg10 mi
4:58 AM33 °FPassing clouds.12 mph73%30.37 "Hg10 mi
3:58 AM33 °FClear.14 mph72%30.36 "Hg10 mi
2:58 AM33 °FClear.17 mph73%30.39 "Hg10 mi
1:58 AM33 °FClear.16 mph68%30.40 "Hg10 mi
12:58 AM33 °FClear.15 mph63%30.41 "Hg10 mi
11:58 PM
Apr 16
33 °FClear.16 mph55%30.42 "Hg10 mi
10:58 PM33 °FPassing clouds.13 mph52%30.44 "Hg10 mi
9:58 PM34 °FClear.15 mph56%30.45 "Hg10 mi
8:58 PM35 °FSunny.12 mph56%30.44 "Hg10 mi
7:55 PM35 °FPartly sunny.10 mph50%30.44 "Hg10 mi
6:55 PM37 °FPartly sunny.10 mph42%30.45 "Hg10 mi
5:55 PM37 °FPartly sunny.15 mph42%30.45 "Hg10 mi
4:55 PM39 °FBroken clouds.18 mph48%30.45 "Hg10 mi
Weather by CustomWeather, © 2014

See weather overview